Flag for France Weather past 2 weeks in Lille, France

Now
57 °F

Clear.


Feels Like: 56 °F
Forecast: 48 / 70 °F
Wind: 6 mph from West

Location: Lille Airport

Current Time: Aug 31, 2014 at 7:24:07 AM

Latest Report: Aug 31, 2014 at 7:00 AM


Visibility: 10 mi

Pressure: 29.98 "Hg

Humidity: 94%

Dew point: 55 °F

Location of LilleLocation

Historic Weather in Lille — Graph

°F

Lille temperature yesterday

Maximum temperature yesterday: 64 °F (at 12:00 PM)
Minimum temperature yesterday: 59 °F (at 7:30 AM)
Average temperature yesterday: 62 °F

Past Weeks' High & Low Weather Summary

 TemperatureHumidityPressure
High72 °F (Aug 16, 3:30 PM)100% (Aug 16, 8:00 AM)30.15 "Hg (Aug 16, 8:00 AM)
Low46 °F (Aug 20, 5:00 AM)43% (Aug 23, 5:00 PM)29.59 "Hg (Aug 26, 2:00 AM)
Average59 °F80%29.94 "Hg
* Reported Aug 16 6:00 AM — Aug 31 6:00 AM, Lille, Weather by CustomWeather, © 2014

Note: Actual official high and low records may vary slightly from our data, if they occured in-between our weather recording intervals... More about our weather records

Advertising

Lille weather history for previous 24 hours

 ConditionsComfort  
Time TempWeatherWind HumidityBarometerVisibility
6:00 AM
Aug 31
57 °FClear.6 mph94%29.98 "Hg10 mi
5:30 AM57 °FClear.7 mph94%29.98 "Hg10 mi
5:00 AM57 °FClear.6 mph94%29.98 "Hg10 mi
4:30 AM59 °FClear.5 mph94%30.01 "HgN/A
4:00 AM59 °FPassing clouds.5 mph94%30.01 "HgN/A
3:30 AM59 °FClear.5 mph94%30.01 "HgN/A
3:00 AM59 °FClear.5 mph94%30.01 "HgN/A
2:30 AM59 °FClear.5 mph88%30.01 "HgN/A
2:00 AM59 °FClear.5 mph88%30.01 "Hg10 mi
1:30 AM59 °FClear.5 mph88%30.01 "Hg10 mi
1:00 AM59 °FClear.6 mph88%30.01 "Hg10 mi
12:30 AM59 °FClear.6 mph88%30.01 "Hg10 mi
12:00 AM59 °FClear.7 mph88%30.01 "Hg10 mi
11:30 PM
Aug 30
59 °FClear.6 mph88%30.04 "Hg10 mi
11:00 PM59 °FPassing clouds.7 mph88%30.04 "HgN/A
10:30 PM59 °FPassing clouds.6 mph82%30.04 "HgN/A
10:00 PM59 °FPassing clouds.7 mph82%30.04 "HgN/A
9:30 PM59 °FBroken clouds.7 mph82%30.04 "HgN/A
9:00 PM61 °FPartly sunny.8 mph83%30.01 "HgN/A
8:30 PM61 °FPartly sunny.9 mph83%30.01 "HgN/A
8:00 PM63 °FPartly sunny.8 mph77%30.01 "HgN/A
7:30 PM63 °FBroken clouds.8 mph83%30.01 "HgN/A
7:00 PM63 °FPartly sunny.9 mph88%30.01 "HgN/A
6:30 PM63 °FPartly sunny.10 mph88%30.01 "HgN/A
6:00 PM63 °FPartly sunny.10 mph88%30.01 "HgN/A
5:30 PM63 °FPartly sunny.12 mph88%30.01 "HgN/A
5:00 PM63 °FPartly sunny.12 mph94%30.01 "HgN/A
4:30 PM63 °FLight rain. Partly sunny.12 mph94%30.01 "Hg2 mi
4:00 PM63 °FPartly sunny.12 mph94%30.01 "HgN/A
3:30 PM64 °FPartly sunny.15 mph83%30.01 "HgN/A
3:00 PM64 °FPartly sunny.13 mph88%30.01 "HgN/A
2:30 PM64 °FLight rain. Partly sunny.13 mph88%30.01 "HgN/A
2:00 PM64 °FLight rain. Partly sunny.14 mph88%30.01 "HgN/A
1:30 PM64 °FPartly sunny.13 mph88%30.04 "HgN/A
12:30 PM64 °FOvercast.16 mph83%30.01 "HgN/A
12:00 PM64 °FOvercast.13 mph83%30.04 "HgN/A
11:30 AM63 °FOvercast.13 mph88%30.04 "HgN/A
11:00 AM63 °FDrizzle. Low clouds.12 mph88%30.04 "Hg4 mi
10:30 AM63 °FOvercast.13 mph83%30.04 "HgN/A
10:00 AM61 °FLight rain. Partly sunny.13 mph94%30.01 "HgN/A
9:30 AM61 °FLight rain. Partly sunny.12 mph88%30.01 "HgN/A
9:00 AM61 °FLight rain. Partly sunny.12 mph88%30.04 "HgN/A
8:30 AM61 °FLight rain. Broken clouds.12 mph88%30.01 "Hg5 mi
8:00 AM61 °FBroken clouds.14 mph88%30.01 "HgN/A
7:30 AM59 °FPartly cloudy.12 mph94%30.01 "HgN/A
7:00 AM61 °FPassing clouds.10 mph88%30.01 "HgN/A
Weather by CustomWeather, © 2014

See weather overviewHow to use our weather pages